Welcome to the New NWS' Forecast!
Most changes are behind the scenes, but click here for differences you might notice.
Latest weather observations around

Gadsden, Gadsden Municipal Airport (KGAD)

Using English Units (Switch to International System of Units)
Date/ Time (CDT) Wind (mph) Vis. (mi) Weather Sky Cond. Temp (°F) Rel. Humidity Wind Chill (°F) Heat Index (°F) Pressure Precip. (in)
Air Dwpt 6 hour Altimeter (inHg) Sea level (inHg) 1 hr 3 hr 6 hr
Max Min
Jun 28 04:56 Calm 10 Clear CLR 60 59     96%     30.12 30.15      
Jun 28 03:56 Calm 10 Clear CLR 60 59     96%     30.11 30.14      
Jun 28 02:56 Calm 10 Clear CLR 60 59     96%     30.1 30.14      
Jun 28 01:56 Calm 10 Clear CLR 61 60     97%     30.1 30.14      
Jun 28 00:56 Calm 10 Clear CLR 63 61     93%     30.11 30.14      
Jun 27 23:56 Calm 10 Clear CLR 64 62     93%     30.11 30.14      
Jun 27 22:56 Calm 10 Clear CLR 66 63     90%     30.11 30.14      
Jun 27 21:56 N 3 10 Clear CLR 67 64     90%     30.09 30.12      
Jun 27 20:56 Calm 10 Clear CLR 71 63     76%   71 30.07 30.1      
Jun 27 19:56 N 5 10 Clear CLR 75 62     64%   75 30.05 30.09      
Jun 27 18:56 N 5 10 Clear CLR 80 60     51%   81 30.05 30.08      
Jun 27 17:56 8 10 Clear CLR 82 61     49%   83 30.04 30.08      
Jun 27 16:56 9 10 Mostly Cloudy BKN060 85 61     45%   85 30.05 30.09      
Jun 27 15:56 6 10 Partly Cloudy SCT060 83 61     48%   83 30.06 30.1      
Jun 27 14:56 7 10 Clear CLR 84 61     46%   84 30.07 30.1      
Jun 27 13:56 7 9 Clear CLR 83 63     51%   84 30.08 30.12      
Jun 27 12:56 11 9 Clear   82 62     51%   83 30.1 30.13      
Jun 27 11:56 N 9 10 Clear CLR 81 61     51%   82 30.11 30.14      
Jun 27 10:56 14 9 Mostly Clear FEW043 81 62     53%   82 30.12 30.15      
Jun 27 09:56 N 10 9 Clear CLR 79 64     60%   79 30.12 30.16      
Jun 27 08:56 Calm 10 Clear CLR 75 64     69%   75 30.13 30.16      
Jun 27 07:56 Calm 10 Clear CLR 70 64     81%     30.12 30.16      
Jun 27 06:56 Calm 10 Clear CLR 64 63     96%     30.11 30.14      
Jun 27 05:56 Calm 10 Clear CLR 61 61     100%     30.09 30.13      
Jun 27 04:56 Calm 10 Clear CLR 61 61     100%     30.09 30.12      
Jun 27 03:56 Calm 10 Clear CLR 62 61     96%     30.08 30.11      
Jun 27 02:56 Calm 10 Clear CLR 63 62     97%     30.08 30.11      
Jun 27 01:56 5 10 Clear CLR 63 62     97%     30.09 30.12      
Jun 27 00:56 Calm 10 Clear   65 63     93%     30.1 30.14      
Jun 26 23:56 Calm 10 Clear CLR 66 63     90%     30.12 30.15      
Jun 26 22:56 Calm 10 Clear CLR 66 64     93%     30.11 30.14      
Jun 26 21:56 Calm 10 Clear CLR 67 64     90%     30.1 30.14      
Jun 26 20:56 Calm 10 Clear CLR 68 64     87%     30.09 30.13      
Jun 26 19:56 3 10 Clear CLR 73 62     68%   73 30.08 30.12      
Jun 26 18:56 N 8 10 Clear CLR 78 61     56%   78 30.07 30.11      
Jun 26 17:56 NW 6 10 Clear CLR 82 60     47%   82 30.07 30.11      
Jun 26 16:56 NE 7 10 Clear CLR 84 61     46%   84 30.08 30.12      
Jun 26 15:56 9 10 Clear CLR 84 58     41%   83 30.11 30.14      
Jun 26 14:56 N 10 5 Haze CLR 84 59     43%   84 30.12 30.16      
Jun 26 13:56 7 10 Clear CLR 84 60     44%   84 30.15 30.18      
Jun 26 12:56 NE 8 8 Clear CLR 82 58     44%   82 30.17 30.21      
Jun 26 11:56 NE 7 6 Haze CLR 81 55     41%   81 30.19        
Jun 26 09:56 N 7 6 Haze CLR 77 60     56%   77 30.21 30.25      
Jun 26 08:56 7 10 Clear CLR 72 60     66%   72 30.21 30.25      
Jun 26 07:56 N 7 10 Clear CLR 65 60     84%     30.21 30.25      
Jun 26 06:56 Calm 10 Clear CLR 60 58     93%     30.2 30.24      
Jun 26 05:56 Calm 10 Clear CLR 56 55     97%     30.19 30.23      
Jun 26 04:56 Calm 10 Clear CLR 57 56     96%     30.17 30.22      
Jun 26 03:56 3 10 Clear CLR 58 57     97%     30.17 30.22      
Jun 26 02:56 Calm 10 Clear CLR 58 58     100%     30.17 30.22      
Jun 26 01:56 Calm 10 Clear CLR 59 59     100%     30.17 30.22      
Jun 26 00:56 Calm 10 Clear CLR 60 59     96%     30.18 30.22      
Jun 25 23:56 3 10 Clear CLR 62 61     96%     30.19 30.24      
Jun 25 22:56 Calm 10 Clear   63 63     100%     30.19 30.24      
Jun 25 21:56 3 10 Clear CLR 64 64     100%     30.18 30.23      
Jun 25 20:56 Calm 10 Clear CLR 67 65     93%     30.18 30.22      
Jun 25 19:56 Calm 10 Clear CLR 70 66     87%     30.17 30.22      
Jun 25 18:56 5 10 Clear CLR 71 65     81%   72 30.17 30.21      
Jun 25 18:09 3 10 Mostly Clear FEW002 72 64     78%   72 30.16        
Jun 25 17:56 3 10 Clear CLR 73 65     76%   74 30.16 30.2      
Jun 25 16:56 NW 3 10 Clear CLR 75 62     64%   75 30.16 30.2      
Jun 25 15:56 3 10 Clear CLR 73 61     66%   73 30.17 30.21      
Jun 25 14:56 NW 6 10 Clear CLR 73 62     68%   73 30.19        
Jun 25 13:56 NW 5 10 Clear CLR 74 62     66%   74 30.21 30.24      
Jun 25 12:56 N 6 10 Clear CLR 73 61     66%   73 30.23 30.27      
Jun 25 11:56 N 7 10 Clear CLR 71 61     70%   71 30.23        
Jun 25 10:56 6 10 Clear CLR 71 62     73%   71 30.22 30.26      
Jun 25 09:56 7 10 Clear CLR 69 62     78%     30.21 30.24      
Jun 25 08:56 NE 7 10 Clear CLR 69 63     81%     30.2 30.23      
Jun 25 07:56 N 6 10 Clear CLR 68 63     84%     30.19 30.22      
Jun 25 06:56 7 10 Clear CLR 68 62     81%     30.18 30.21      
Jun 25 05:56 N 6 10 Clear CLR 67 63     87%     30.17 30.2      
Jun 25 04:56 6 10 Clear CLR 67 64     90%     30.14 30.17      
Jun 25 03:56 3 10 Clear CLR 68 63     84%     30.11 30.14      
Jun 25 02:56 N 3 10 Clear CLR 69 64     84%     30.12 30.15      
Jun 25 01:56 N 5 10 Clear CLR 69 64     84%     30.12 30.15      
Jun 25 00:56 5 10 Clear CLR 70 66     87%     30.13 30.16      
Jun 24 23:56 NW 3 10 Clear CLR 70 67     90%     30.12 30.16      
Jun 24 22:56 NW 3 10 Clear CLR 71 68     90%   72 30.12 30.15      
Jun 24 21:56 N 3 10 Clear CLR 73 68     84%   74 30.1 30.13      
Jun 24 20:56 NW 5 10 Clear CLR 75 68     79%   76 30.07 30.1      
Jun 24 19:56 Calm 10 Clear CLR 78 68     71%   79 30.06 30.09      
Jun 24 18:56 NW 5 10 Clear CLR 82 69     65%   85 30.04 30.07     0
Jun 24 17:56 10 10 Clear CLR 85 73     68%   92 30.01 30.03      
Jun 24 16:56 NW 7 10 Partly Cloudy FEW023 SCT032 SCT039 85 74     70%   92 29.99 30.01 0    
Jun 24 14:56 NW 7 10 Light Rain SCT031 BKN041 BKN049 81 77     88%   88 30.02 30.04 0    
Jun 24 14:37 NW 3 10 Light Rain FEW026 BKN035 BKN044 82 75     79%   89 30.02   0    
Jun 24 14:13 Calm 10 Cloudy BKN024 OVC032 84 73     70%   91 30.02        
Jun 24 13:56 S 6 10 Mostly Cloudy SCT024 BKN034 85 75     72%   93 30.02 30.04      
Jun 24 12:56 6 10 Mostly Cloudy FEW015 SCT021 BKN036 82 75     79%   89 30.03 30.06     0
Jun 24 12:33 W 6 10 Mostly Cloudy BKN015 81 73     79%   85 30.04        
Jun 24 11:56 5 10 Mostly Cloudy BKN011 BKN017 79 74     85%   83 30.04 30.06      
Jun 24 11:42 7 10 Partly Cloudy SCT011 79 75     89%   82 30.03        
Jun 24 11:22 6 10 Mostly Cloudy SCT011 BKN014 79 73     84%   82 30.03        
Jun 24 10:56 3 10 Partly Cloudy SCT011 77 73     88%   79 30.03 30.06 0    
Jun 24 09:56 3 10 Light Rain SCT011 BKN035 75 74     96%   77 30.02 30.05 0 0  
Jun 24 08:56 3 10 Light Rain FEW004 SCT009 BKN035 75 74     96%   77 30.01 30.05 0    
Jun 24 08:51 Calm 10 Light Rain FEW004 SCT009 BKN032 73 73     100%   75 30.01   0    
Jun 24 07:56 Calm 7 Rain OVC004 73 73     100%   75 30.02 30.05 0    
Jun 24 07:21 S 3 9 Rain BKN006 BKN010 OVC075 73 73     100%   75 30.01   0    
Jun 24 06:56 3 10 Cloudy BKN010 OVC075 73 73     100%   75 30 30.03     0
Jun 24 06:26 3 7 Cloudy BKN008 OVC014 73 73     100%   75 29.98        
Jun 24 05:56 Calm 7 Cloudy BKN010 OVC015 73 73     100%   75 29.98 30.01 0    
Jun 24 05:42 Calm 7 Light Rain SCT008 BKN013 OVC029 73 73     100%   75 29.97   0    
Jun 24 04:56 SE 3 4 Rain and Fog/Mist SCT010 OVC017 73 73     100%   75 29.95 29.98 0    
Jun 24 04:38 3 4 Rain and Fog/Mist OVC010 73 73     100%   75 29.95   0    
Jun 24 03:56 Calm 10 Light Rain OVC006 73 73     100%   75 29.96 29.99 0 0  
Jun 24 02:56 3 10 Cloudy OVC006 73 72     96%   75 29.96        
Jun 24 01:56 3 10 Cloudy OVC008 73 72     96%   75 29.94 29.97      
Jun 24 01:30 5 10 Cloudy OVC008 73 72     94%   75 29.94        
Jun 24 01:11 6 10 Mostly Cloudy SCT005 BKN012 73 72     94%   75 29.95        
Jun 24 00:56 5 10 Partly Cloudy FEW012 SCT060 73 72     96%   75 29.95 29.97     0
Jun 23 23:56 5 10 Cloudy OVC012 73 72     96%   75 29.96 29.98 0    
Jun 23 23:34 S 5 10 Cloudy OVC012 73 73     100%   75 29.96   0    
Jun 23 22:56 3 10 Cloudy OVC007 73 73     100%   75 29.96 29.99      
Jun 23 21:56 6 10 Cloudy BKN009 OVC090 73 73     100%   75 29.95 29.98 0 0  
Jun 23 21:35 5 10 Cloudy FEW007 OVC090 73 73     100%   75 29.95   0    
Jun 23 21:12 5 10 Light Rain SCT009 BKN023 OVC090 73 73     100%   75 29.97   0    
Jun 23 20:56 5 10 Light Rain BKN011 BKN015 OVC020 73 73     100%   75 29.97 30 0    
Jun 23 20:33 5 10 Light Rain FEW009 OVC016 73 73     100%   75 29.96   0    
Jun 23 20:19 3 10 Cloudy BKN011 OVC016 73 73     100%   75 29.96   0    
Jun 23 19:56 5 10 Light Rain OVC016 74 73     97%   76 29.94 29.97 0    
Jun 23 18:56 5 10 Light Rain FEW010 OVC018 74 73     97%   76 29.92 29.95 0   0
Jun 23 18:53 5 10 Light Rain FEW010 OVC018 73 73     100%   75 29.92   0    
Jun 23 18:38 6 10 Rain BKN010 BKN018 73 73     100%   75 29.92   0    
Jun 23 18:24 5 10 Light Rain SCT008 BKN022 73 73     100%   75 29.91   0    
Jun 23 17:56 5 10 Light Rain CLR 74 73     97%   76 29.91 29.94 0    
Jun 23 17:37 9 10 Light Rain FEW010 BKN065 73 73     100%   75 29.9   0    
Jun 23 17:22 7 10 Light Rain SCT010 SCT038 OVC065 73 73     100%   75 29.9   0    
Jun 23 16:59 7 10 Light Rain FEW008 SCT037 BKN049 75 73     94%   77 29.89   0    
Jun 23 16:56 9 10 Light Rain FEW035 BKN049 BKN060 75 73     94%   77 29.9 29.93 0    
Jun 23 16:44 9 9 Rain FEW035 SCT047 BKN060 75 73     94%   77 29.89   0    
Jun 23 16:10 13 10 Light Rain SCT010 SCT018 BKN033 73 73     100%   75 29.88   0    
Jun 23 15:56 10 5 Thunderstorms and Heavy Rain and Fog/Mist SCT010 BKN029 OVC040 74 72     94%   75 29.87 29.9 0 0  
Jun 23 15:51 16 3 Thunderstorms and Heavy Rain and Fog/Mist SCT010 BKN029 OVC046 75 73     94%   77 29.88   0    
Jun 23 15:46 18 2.5 Thunderstorms and Heavy Rain and Fog/Mist SCT014 BKN038 OVC046 75 73     94%   77 29.89   0    
Jun 23 15:30 16 8 Light Rain FEW023 BKN046 OVC065 84 73     70%   91 29.85   0    
Jun 23 15:21 S 10 10 Mostly Cloudy SCT041 BKN050 BKN065 86 73     66%   93 29.85        
Jun 23 14:56 15 10 Mostly Cloudy FEW040 BKN049 88 73     61%   96 29.85 29.88      
Jun 23 13:56 S 14 10 Mostly Cloudy SCT038 BKN055 87 74     65%   95 29.88 29.91      
Jun 23 12:56 S 15 10 Mostly Cloudy SCT036 BKN048 86 74     67%   94 29.91 29.93      
Jun 23 12:09 10 10 Mostly Cloudy SCT030 BKN037 BKN046 84 73     70%   91 29.93        
Jun 23 11:56 13 10 Mostly Cloudy BKN028 BKN035 84 74     72%   91 29.93 29.95      
Jun 23 10:56 13 10 Cloudy BKN023 OVC032 83 74     74%   89 29.95 29.97      
Jun 23 09:56 13 10 Cloudy OVC020 80 74     82%   85 29.96 29.98      
Jun 23 09:11 8 10 Cloudy BKN016 OVC025 79 73     84%   82 29.96        
Jun 23 08:56 9 10 Cloudy OVC014 80 75     85%   85 29.96 29.99      
Jun 23 08:28 6 10 Cloudy OVC014 77 73     89%   79 29.96        
Jun 23 07:56 6 10 Cloudy BKN016 OVC021 76 74     94%   78 29.96 29.99      
Jun 23 06:56 S 6 10 Mostly Cloudy BKN016 75 73     94%   77 29.95 29.98 0   0
Jun 23 05:56 S 6 9 Light Rain BKN014 BKN021 74 73     97%   76 29.96   0    
Jun 23 04:56 S 7 8 Light Rain OVC018 75 73     94%   77 29.95 29.98 0    
Jun 23 03:56 7 10 Light Rain BKN018 OVC023 76 73     91%   77 29.94 29.97 0 0  
Jun 23 02:56 S 6 10 Cloudy SCT018 BKN026 OVC031 76 73     91%   77 29.95 29.98 0    
Jun 23 02:35 S 7 10 Light Rain SCT018 BKN030 BKN110 75 73     94%   77 29.96   0    
Jun 23 01:56 S 7 10 Light Rain OVC018 76 74     94%   78 29.97 30 0    
Jun 23 00:56 S 8 10 Mostly Cloudy BKN019 BKN026 77 73     88%   79 29.97 29.99     0
Jun 23 00:15 7 10 Cloudy FEW017 BKN025 OVC034 77 73     89%   79 29.97        
Jun 22 23:56 7 10 Mostly Cloudy FEW029 BKN034 77 74     90%   79 29.98 30      
Jun 22 22:56 6 10 Cloudy FEW016 OVC050 76 74     94%   78 29.99 30.02 0    
Jun 22 22:08 Calm 10 Light Rain FEW016 BKN035 OVC042 75 73     94%   77 29.98   0    
Jun 22 21:56 3 9 Light Rain FEW015 BKN029 OVC037 75 74     96%   77 29.97 30.01 0 0  
Jun 22 20:56 Calm 10 Mostly Cloudy FEW030 SCT047 BKN075 76 74     94%   78 29.97 30.01      
Jun 22 19:56 S 6 10 Cloudy SCT014 BKN041 OVC055 77 74     90%   79 29.96 29.99      
Jun 22 19:27 5 10 Cloudy BKN014 BKN020 OVC075 77 73     89%   79 29.96        
Jun 22 18:56 6 10 Cloudy SCT016 OVC060 76 74     94%   78 29.96 29.99 0   1
Jun 22 18:51 6 10 Cloudy FEW013 BKN018 OVC055 75 73     94%   77 29.96   0    
Jun 22 17:56 7 10 Light Rain BKN013 OVC020 76 74     94%   78 29.97 30 0    
Jun 22 17:46 5 10 Light Rain BKN013 OVC017 75 73     94%   77 29.97   0    
Jun 22 16:56 SE 13 10 Light Rain SCT014 BKN021 OVC041 77 75     94%   79 29.96 30 0    
Jun 22 15:56 S 8 10 Cloudy BKN013 BKN021 OVC055 77 75     94%   79 29.98   0 0  
Jun 22 15:30 8 4 Light Rain and Fog/Mist SCT008 BKN014 OVC035 75 75     100%   77 29.98   0    
Jun 22 15:22 S 7 4 Rain and Fog/Mist SCT010 BKN018 OVC036 75 75     100%   77 29.99   0    
Jun 22 15:10 SE 8 2 Thunderstorms and Heavy Rain and Fog/Mist SCT018 BKN024 OVC035 75 75     100%   77 29.97   0    
Jun 22 15:04 6 1.5 Heavy Rain and Fog/Mist SCT018 BKN024 OVC029 75 75     100%   77 29.97   0    
Jun 22 14:56 SE 6 2 Heavy Rain and Fog/Mist SCT018 BKN023 OVC036 76 76     100%   78 29.98 30.01 0    
Jun 22 14:46 SE 3 2.5 Heavy Rain and Fog/Mist FEW018 BKN025 OVC055 77 75     94%   79 29.98   0    
Jun 22 13:56 5 10 Light Rain SCT019 BKN025 OVC075 79 75     88%   83 29.99 30.02 0    
Jun 22 12:56 SE 7 10 Cloudy SCT018 BKN026 OVC049 80 75     85%   85 30 30.03     1
Jun 22 11:56 8 10 Mostly Cloudy FEW012 BKN017 BKN035 80 76     87%   85 30.02 30.05      
Jun 22 11:29 SE 7 10 Cloudy FEW014 BKN018 OVC036 77 75     94%   79 30.02        
Jun 22 10:56 10 10 Mostly Cloudy FEW010 SCT016 BKN036 76 74     94%   78 30.03 30.06 0    
Jun 22 10:50 8 10 Cloudy SCT013 BKN036 OVC055 75 73     94%   77 30.03   0    
Jun 22 10:40 8 10 Light Rain BKN013 OVC033 75 73     94%   77 30.03   0    
Jun 22 09:56   3 Rain and Fog/Mist BKN009 BKN016 OVC033 74 73     97%   76 30.01 30.04 0 1  
Jun 22 09:39 10 3 Rain and Fog/Mist BKN009 BKN016 OVC025 73 73     100%   75 30.02   0    
Jun 22 09:24 9 2 Heavy Rain and Fog/Mist BKN009 OVC014 73 73     100%   75 30.03   0    
Jun 22 09:18 8 1.75 Heavy Rain and Fog/Mist OVC011 73 73     100%   75 30.03   0    
Jun 22 08:56 8 3 Rain and Fog/Mist OVC011 74 73     97%   76 30.04 30.07 0    
Jun 22 08:42 SE 8 5 Rain and Fog/Mist OVC011 73 73     100%   75 30.04   0    
Jun 22 07:56 8 8 Light Rain OVC009 74 73     97%   76 30.04 30.07 0    
Jun 22 07:19 E 6 3 Rain and Fog/Mist FEW004 BKN007 OVC029 72 72     100%   73 30.03   0    
Jun 22 07:11 E 7 2 Heavy Rain and Fog/Mist FEW004 BKN010 OVC016 72 72     100%   73 30.03   0    
Jun 22 07:01 6 1.75 Heavy Rain and Fog/Mist BKN010 OVC016 72 72     100%   73 30.04   0    
Jun 22 06:56 E 8 3 Heavy Rain and Fog/Mist FEW004 OVC013 72 71     97%   73 30.03 30.07 0   1
Jun 22 06:49 E 8 4 Rain and Fog/Mist FEW004 BKN013 OVC018 72 72     100%   73 30.03   0    
Jun 22 06:41 E 9 3 Rain and Fog/Mist OVC015 72 72     100%   73 30.02   0    
Jun 22 06:33 E 8 1.75 Heavy Rain and Fog/Mist FEW005 OVC018 72 72     100%   73 30.02   0    
Jun 22 06:21 9 5 Light Rain and Fog/Mist FEW005 BKN018 OVC032 72 72     100%   73 30.01   0    
Jun 22 05:56 E 7 4 Rain and Fog/Mist FEW003 BKN036 OVC043 71 71     100%   73 30.01 30.05 0    
Jun 22 05:35 6 10 Light Rain BKN003 BKN036 OVC047 72 72     100%   73 30.01   0    
Jun 22 05:20 8 9 Light Rain SCT003 BKN011 BKN043 72 70     94%   73 30   0    
Jun 22 04:56 7 7 Rain FEW013 BKN034 OVC055 71 71     100%   73 30.01 30.05 0    
Jun 22 04:14 3 6 Light Rain and Fog/Mist FEW003 SCT010 BKN034 72 70     94%   73 30.02   0    
Jun 22 04:00 5 7 Rain SCT003 BKN010 BKN036 72 70     94%   73 30.02   0    
Jun 22 03:56 6 9 Light Rain BKN003 BKN008 BKN036 71 70     96%   72 30.02 30.05 0 0  
Jun 22 03:48 7 9 Light Rain BKN003 BKN008 72 70     94%   73 30.02   0    
Jun 22 02:56 E 6 6 Rain and Fog/Mist SCT004 SCT037 OVC045 70 70     100%     30.02 30.06 0    
Jun 22 01:56 6 10 Light Rain FEW042 71 70     96%   72 30.04 30.07 0    
Jun 22 00:56 6 10 Clear CLR 71 70     96%   72 30.05 30.09 0   0
Jun 21 23:56 E 5 10 Light Rain CLR 71 70     96%   72 30.06 30.09 0    
Jun 21 22:56 5 10 Clear CLR 72 70     93%   73 30.06 30.09      
Jun 21 21:56 E 5 10 Clear CLR 73 71     94%   74 30.06 30.09      
Jun 21 21:44 E 5 9 Mostly Clear FEW009 73 72     94%   75 30.06        
Jun 21 20:56 E 5 10 Clear CLR 73 72     96%   75 30.06 30.09      
Jun 21 19:56 E 5 9 Clear CLR 74 72     94%   75 30.05 30.09      
Jun 21 18:56 E 7 10 Clear CLR 74 72     94%   75 30.06 30.09     0
Jun 21 17:56 E 5 10 Clear CLR 75 73     94%   77 30.06 30.09 0    
Jun 21 16:56 E 7 10 Light Rain FEW060 75 72     90%   76 30.06 30.09 0    
Jun 21 16:18 E 6 8 Light Rain FEW009 SCT024 BKN050 75 73     94%   77 30.06   0    
Jun 21 15:56 E 5 5 Light Rain and Fog/Mist FEW022 BKN027 OVC044 74 73     97%   76 30.07 30.11 0 0  
Jun 21 15:51 E 3 4 Light Rain and Fog/Mist FEW020 BKN027 OVC042 73 73     100%   75 30.08   0    
Jun 21 14:56 3 6 Light Rain and Fog/Mist BKN032 BKN040 OVC060 74 71     91%   75 30.08 30.12 0    
Jun 21 13:56 SE 8 10 Mostly Cloudy FEW026 BKN037 BKN044 78 70     76%   79 30.08 30.11      
Jun 21 12:56 6 10 Partly Cloudy SCT085 SCT120 79 70     74%   82 30.09 30.12      
Jun 21 10:56 E 6 9 Mostly Cloudy BKN085 79 71     77%   82 30.1 30.13      
Jun 21 09:56 E 8 10 Cloudy SCT017 BKN080 OVC095 78 70     76%   79 30.08 30.11      
Jun 21 09:32 E 7 10 Cloudy BKN015 OVC090 77 72     83%   78 30.08        
Jun 21 08:56 6 10 Mostly Cloudy BKN095 75 70     84%   76 30.08 30.11      
Jun 21 07:56 NE 5 10 Clear CLR 74 70     87%   75 30.08 30.11      
Jun 21 06:56 5 10 Mostly Cloudy BKN047 72 71     97%   73 30.08 30.11      
Jun 21 05:56 Calm 10 Mostly Clear FEW095 71 70     96%   72 30.07 30.1      
Jun 21 05:32 SE 3 10 Mostly Cloudy SCT011 BKN049 72 70     94%   73 30.07        
Jun 21 05:12 E 3 10 Cloudy FEW008 BKN014 OVC047 72 70     94%   73 30.07        
Jun 21 04:56 Calm 3 Fog/Mist FEW016 OVC045 71 70     96%   72 30.07 30.1      
Jun 21 03:56 N 5 10 Mostly Cloudy FEW016 SCT039 BKN075 70 69     97%     30.05 30.08      
Jun 21 02:56 Calm 10 Clear CLR 70 70     100%     30.04 30.07      
Jun 21 01:56 Calm 10 Clear CLR 72 70     93%   73 30.05 30.07      
Jun 21 00:56 Calm 10 Partly Cloudy SCT017 72 71     97%   73 30.05 30.08      
Jun 21 00:25 3 10 Partly Cloudy SCT011 SCT026 72 72     100%   73 30.06        
Jun 20 23:56 Calm 10 Mostly Cloudy BKN014 73 71     94%   74 30.06 30.09      
Jun 20 22:56 Calm 10 Cloudy BKN012 OVC100 73 71     94%   74 30.07 30.1      
Jun 20 22:19 Calm 10 Mostly Cloudy BKN012 73 72     94%   75 30.07        
Jun 20 21:56 5 10 Mostly Cloudy SCT016 BKN044 BKN060 73 71     94%   74 30.07 30.1      
Jun 20 20:56 Calm 10 Partly Cloudy SCT014 74 72     94%   75 30.06 30.09      
Jun 20 19:56 Calm 10 Clear CLR 76 72     88%   77 30.05 30.08      
Jun 20 18:56 S 3 10 Clear CLR 77 72     84%   78 30.03 30.07      
Jun 20 17:56 S 3 10 Clear CLR 78 72     82%   79 30.02 30.06      
Jun 20 16:56 S 3 9 Clear CLR 80 72     76%   84 30.02 30.05      
Jun 20 15:56 S 8 10 Clear CLR 80 72     76%   84 30.03 30.06      
Jun 20 14:56 5 10 Clear CLR 85 69     59%   89 30.04 30.07      
Jun 20 13:56 Calm 10 Clear CLR 85 68     57%   88 30.05 30.07      
Jun 20 12:56 E 7 10 Clear CLR 84 68     59%   87 30.06 30.09      
Jun 20 11:56 E 7 7 Clear CLR 83 68     61%   86 30.08 30.1      
Jun 20 11:39 E 10 3 Haze FEW042 82 70     66%   86 30.08        
Jun 20 11:33 E 8 1.25 Haze SCT042 82 70     66%   86 30.08        
Jun 20 11:13 8 0.75 Haze SCT042 82 72     70%   87 30.08        
Jun 20 11:09 6 1.5 Haze FEW042 82 72     70%   87 30.08        
Jun 20 10:56 7 6 Haze CLR 82 70     67%   86 30.08 30.11      
Jun 20 09:56 E 7 8 Partly Cloudy FEW015 SCT037 80 73     79%   84 30.08 30.11      
Jun 20 08:56 Calm 10 Mostly Clear FEW009 76 73     91%   77 30.09 30.11      
Jun 20 08:48 Calm 10 Mostly Clear FEW009 75 72     89%   77 30.09        
Jun 20 07:56 Calm 10 Clear CLR 73 72     96%   75 30.08 30.11      
Jun 20 06:56 N 3 10 Mostly Clear FEW002 71 71     100%   73 30.05 30.09      
Jun 20 06:53 3 9 Mostly Clear FEW002 72 72     100%   73 30.05        
Jun 20 06:07 Calm 5 Fog/Mist BKN002 BKN050 72 70     94%   73 30.05        
Jun 20 05:56 Calm 7 Partly Cloudy SCT050 71 70     96%   72 30.05 30.09      
Jun 20 04:56 N 5 7 Partly Cloudy SCT050 72 71     97%   73 30.05 30.08      
Jun 20 04:13 3 5 Fog/Mist FEW004 BKN050 72 72     100%   73 30.04        
Jun 20 03:56 N 3 6 Fog/Mist BKN004 BKN050 73 72     96%   75 30.04 30.07      
Jun 20 03:46 Calm 6 Fog/Mist BKN004 OVC048 73 72     94%   75 30.04        
Jun 20 03:33 Calm 7 Cloudy SCT004 BKN007 OVC048 73 73     100%   75 30.04        
Jun 20 02:56 Calm 4 Fog/Mist OVC002 73 73     100%   75 30.04 30.07      
Jun 20 01:56 Calm 6 Fog/Mist FEW002 73 72     96%   75 30.04 30.06      
Jun 20 00:56 3 7 Clear CLR 73 73     100%   75 30.04 30.07      
Jun 20 00:12 Calm 8 Partly Cloudy SCT010 73 73     100%   75 30.06        
Jun 19 23:56 Calm 2 Fog/Mist CLR 72 72     100%   74 30.06 30.09      
Jun 19 22:56 3 8 Clear CLR 73 73     100%   75 30.06 30.09      
Jun 19 21:56 Calm 8 Partly Cloudy SCT008 74 74     100%   76 30.05 30.08      
Jun 19 20:56 Calm 10 Clear CLR 76 75     97%   78 30.03 30.06      
Jun 19 19:56 Calm 10 Clear CLR 77 75     94%   79 30.02 30.05      
Jun 19 18:56 Calm 10 Mostly Clear FEW050 79 74     85%   83 30.01 30.04     1
Jun 19 18:35 E 3 9 Mostly Clear FEW020 81 73     79%   85 30.01        
Notice The following observation data may not be complete
Jun 19 18:14   10 Mostly Cloudy SCT013 BKN020 BKN026          %              
Jun 19 17:15 Calm 10 Partly Cloudy SCT009 79 73     84%   82 29.98        
Jun 19 16:56 Calm 10 Clear CLR 78 74     87%   80 29.98 30.01 0    
Jun 19 15:56 SE 5 10 Light Rain FEW060 76 74     94%   78 29.98 30.01 0 1  
Jun 19 15:23 Calm 10 Light Rain FEW025 SCT041 75 73     94%   77 29.98   0    
Jun 19 15:13 NE 5 10 Thunderstorms and Rain SCT013 SCT025 BKN032 75 73     94%   77 29.97   0    
Jun 19 14:47 7 2 Thunderstorms and Rain and Fog/Mist SCT009 BKN015 OVC021 73 72     94%   75 30   1    
Jun 19 14:35 3 1 Thunderstorms and Heavy Rain and Fog/Mist SCT009 BKN015 OVC024 75 73     94%   77 29.99   1    
Jun 19 14:16 N 3 10 Light Rain BKN025 BKN035 BKN090 81 75     84%   86 29.97   0    
Jun 19 13:56 NW 7 10 Partly Cloudy FEW025 SCT090 84 75     74%   92 29.97 30      
Jun 19 13:50 3 10 Partly Cloudy FEW025 SCT065 84 73     70%   91 29.97        
Jun 19 13:21 6 10 Mostly Cloudy BKN023 86 75     70%   95 29.99        
Jun 19 12:56 8 10 Partly Cloudy SCT050 SCT065 85 76     75%   94 30 30.03      
Jun 19 12:43 5 8 Mostly Cloudy FEW025 BKN047 BKN055 82 75     79%   89 30        
Jun 19 11:56 6 10 Cloudy BKN027 OVC031 81 73     77%   86 30.01 30.04      
Jun 19 09:56 6 10 Clear CLR 80 71     74%   84 30 30.03      
Jun 19 08:56 Calm 10 Clear CLR 77 71     82%   78 30 30.03      
Jun 19 07:56 Calm 10 Mostly Clear FEW110 74 71     91%   75 30 30.03      
Jun 19 06:56 3 10 Mostly Cloudy BKN100 71 70     96%   72 30        
Jun 19 03:56 Calm 10 Partly Cloudy SCT095 71 70     96%   72 29.96 29.98      
Jun 19 01:56 Calm 10 Clear CLR 71 70     96%   72 29.95 29.98      
Jun 19 00:56 Calm 10 Clear CLR 70 69     97%     29.95 29.97     0
Jun 18 21:56 6 10 Clear CLR 74 70     87%   75 29.94 29.96   0  
Jun 18 19:56 Calm 10 Partly Cloudy SCT085 74 72     94%   75 29.92 29.95 0    
Jun 18 18:56 Calm 10 Light Rain CLR 75 70     84%   76 29.92 29.96 0   0
Jun 18 18:52 Calm 10 Light Rain FEW049 75 70     83%   76 29.92   0    
Jun 18 17:56 5 10 Thunderstorms FEW035 81 74     79%   86 29.88 29.91      
Jun 18 15:56 S 3 10 Partly Cloudy SCT033 84 73     70%   90   29.91      
Jun 18 15:49 S 7 10 Mostly Clear FEW033 84 73     70%   91 29.88        
Jun 18 15:32 S 5 10 Partly Cloudy SCT033 84 73     70%   91 29.88        
Jun 18 14:56 8 10 Mostly Cloudy SCT030 BKN038 85 74     70%   92 29.89 29.91      
Jun 18 13:56 S 9 10 Mostly Cloudy SCT032 BKN040 85 74     70%   92 29.9 29.93      
Jun 18 12:56 SE 6 10 Mostly Clear FEW030 85 75     72%   93 29.93 29.95      
Jun 18 10:56 8 10 Cloudy FEW018 BKN070 OVC090 81 73     77%   86 29.95 29.98      
Jun 18 10:54 7 10 Cloudy FEW018 BKN065 OVC085 81 73     79%   85 29.95        
Jun 18 10:22 S 5 10 Mostly Cloudy SCT017 BKN027 BKN034 79 73     84%   82 29.96        
Jun 18 09:56 7 10 Mostly Cloudy SCT015 BKN031 80 73     79%   84 29.96 29.98      
Jun 18 09:49 S 6 10 Mostly Cloudy BKN015 BKN029 79 72     79%   82 29.96        
Jun 18 08:56 5 10 Clear   78 73     85%   80 29.96 29.99      
Jun 18 08:50 S 5 10 Clear   77 72     83%   78 29.96        
Jun 18 08:29 S 6 10 Mostly Cloudy BKN011 BKN043 77 73     89%   79 29.96        
Jun 18 08:08 S 5 10 Cloudy BKN009 BKN015 OVC043 75 73     94%   77 29.95        
Jun 18 07:56 S 5 10 Cloudy SCT009 OVC041 76 73     91%   77 29.95 29.97      
Jun 18 07:20 S 5 10 Mostly Cloudy FEW007 SCT019 BKN031 75 72     89%   77 29.93        
Jun 18 06:56 SE 5 10 Cloudy OVC017 74 72     94%   75 29.93 29.95      
Jun 18 06:29 Calm 10 Cloudy FEW009 OVC017 73 72     94%   75 29.92        
Jun 18 05:56 Calm 9 Cloudy OVC013 73 72     96%   75 29.92 29.95      
Jun 18 05:11 SE 3 10 Mostly Cloudy BKN013 73 72     94%   75 29.91        
Jun 18 04:56 3 10 Partly Cloudy SCT015 72 72     100%   74 29.91 29.93      
Jun 18 04:33 Calm 10 Partly Cloudy SCT015 73 72     94%   75 29.9        
Jun 18 04:08 3 10 Mostly Cloudy BKN015 73 72     94%   75 29.9        
Jun 18 03:56 Calm 10 Cloudy OVC013 74 72     94%   75 29.9 29.93      
Jun 18 02:56 Calm 10 Cloudy OVC011 74 72     94%   75 29.88 29.9      
Jun 18 01:56 Calm 10 Cloudy OVC013 74 72     94%   75 29.85 29.88      
Jun 18 01:26 Calm 10 Mostly Cloudy BKN017 BKN024 73 72     94%   75 29.84        
Jun 18 00:56 7 10 Partly Cloudy SCT040 73 71     94%   74 29.84 29.87      
Jun 17 23:56 3 9 Clear CLR 72 72     100%   74 29.85        
Jun 17 22:56 W 3 10 Clear CLR 73 72     96%   75 29.87 29.9      
Jun 17 21:56 Calm 10 Clear CLR 74 72     94%   75 29.88 29.91      
Jun 17 20:56 3 10 Clear CLR 78 73     85%   80 29.86 29.88      
Jun 17 19:56 Calm 10 Clear CLR 81 72     74%   85 29.84 29.87      
Jun 17 17:56 5 10 Partly Cloudy FEW043 SCT055 86 72     63%   92 29.82 29.85      
Jun 17 16:56 Calm 10 Mostly Clear FEW095 88 72     59%   95 29.82 29.85      
Jun 17 15:56 6 10 Partly Cloudy SCT042 SCT090 89 73     59%   97 29.83 29.85      
Jun 17 14:56 W 7 10 Mostly Clear FEW040 87 73     63%   95 29.83 29.86      
Jun 17 12:56 W 7 10 Clear CLR 86 72     63%   92 29.86 29.88      
Jun 17 12:17 7 10 Mostly Clear FEW027 84 72     66%   90 29.87        
Jun 17 11:56 7 10 Mostly Cloudy BKN027 84 74     72%   91 29.88        
Jun 17 10:56 Calm 10 Mostly Cloudy BKN050 81 72     74%   85 29.9 29.93      
Notice The following observation data may not be complete
Jun 17 09:56 Calm 9 Mostly Clear FEW007   72      %     29.91        
Jun 17 09:44 Calm 9 Partly Cloudy SCT005 75 72     89%   77 29.91        
Jun 17 09:13 5 3 Fog/Mist OVC003 73 72     94%   75 29.9        
Jun 17 08:56 NW 5 2 Fog/Mist OVC001 73 72     96%   75 29.89 29.92      
Jun 17 08:50 Calm 1.25 Fog/Mist OVC001 73 72     94%   75 29.89        
Jun 17 08:43 Calm 0.75 Fog/Mist OVC001 72 72     100%   73 29.89        
Jun 17 07:56 Calm 0.25 Fog OVC001 71 71     100%   73 29.89 29.92      
Jun 17 07:26 Calm 0.25 Fog OVC001 70 70     100%     29.88        
Jun 17 07:19 Calm 0.75 Fog/Mist OVC001 70 70     100%     29.89        
Jun 17 06:56 Calm 0.25 Fog OVC001 68 68     100%     29.89 29.92      
Jun 17 06:46 Calm 0.5 Fog OVC001 68 66     94%     29.89        
Jun 17 05:56 Calm 7 Clear CLR 65 65     100%       29.91      
Jun 17 05:53 Calm 3 Fog/Mist CLR 66 64     94%              
Jun 17 05:44 Calm 1.75 Fog/Mist CLR 64 64     100%     29.87        
Jun 17 04:56 Calm 6 Fog/Mist CLR 66 66     100%     29.86 29.88      
Jun 17 04:54 Calm 3 Fog/Mist CLR 66 66     100%     29.85        
Jun 17 04:23 Calm 1.25 Fog/Mist CLR 66 66     100%     29.85        
Jun 17 04:13 Calm 0.75 Fog/Mist CLR 66 66     100%     29.85        
Jun 17 04:10 Calm 1.75 Fog/Mist CLR 66 66     100%     29.85        
Jun 17 03:56 Calm 4 Fog/Mist CLR 66 66     100%     29.85 29.88      
Jun 17 02:58 Calm 4 Fog/Mist CLR 68 68     100%     29.84        
Jun 17 02:56 3 1.75 Fog/Mist FEW002 68 68     100%     29.84 29.86      
Jun 17 02:45 5 1 Fog/Mist VV001 66 66     100%     29.83        
Jun 17 02:42 Calm 2.5 Fog/Mist FEW001 68 68     100%     29.83        
Jun 17 02:40 Calm 1 Fog/Mist VV001 68 68     100%     29.83        
Jun 17 02:28 Calm 0.5 Fog VV001 68 66     94%     29.83        
Jun 17 02:23 Calm 1.75 Fog/Mist FEW002 68 68     100%     29.83        
Jun 17 02:17 Calm 2.5 Fog/Mist CLR 68 68     100%     29.83        
Jun 17 02:13 Calm 1 Fog/Mist CLR 70 68     94%     29.84        
Jun 17 02:08 Calm 0.5 Fog CLR 70 70     100%     29.84        
Jun 17 01:56 Calm 0.75 Fog/Mist CLR 69 69     100%     29.84 29.87      
Jun 17 01:52 Calm 1.25 Fog/Mist CLR 70 68     94%     29.85        
Jun 17 00:56 Calm 7 Clear CLR 70 69     97%     29.86 29.89      
Jun 16 21:56 Calm 10 Clear CLR 73 71     94%   74 29.88 29.91      
Jun 16 20:56 Calm 7 Partly Cloudy SCT075 76 72     88%   77 29.87 29.9      
Jun 16 18:56 3 10 Clear CLR 83 72     70%   88 29.85 29.88      
Jun 16 17:56 6 10 Clear CLR 85 71     63%   90 29.85 29.88      
Jun 16 16:56 S 7 10 Clear CLR 85 70     61%   89 29.85 29.88      
Jun 16 15:56 6 10 Partly Cloudy SCT033 85 71     63%   90 29.86 29.89      
Jun 16 14:56 3 7 Mostly Clear FEW031 85 71     63%   90 29.89 29.91      
Jun 16 13:56 5 10 Mostly Clear FEW031 83 71     67%   88 29.91 29.94      
Jun 16 13:10 6 10 Partly Cloudy SCT026 82 72     70%   87 29.92        
Jun 16 12:56 3 10 Mostly Cloudy BKN024 82 71     69%   86 29.93 29.96      
Jun 16 11:56 6 10 Mostly Cloudy BKN018 79 71     77%   82 29.94 29.98      
Jun 16 10:56 6 10 Mostly Cloudy BKN016 77 70     79%   78 29.95 29.98      
Jun 16 10:21 3 10 Mostly Clear FEW011 75 70     83%   76 29.96        
Jun 16 09:56 Calm 10 Cloudy OVC011 74 68     82%   75 29.96 30      
Jun 16 09:37 Calm 10 Cloudy OVC011 73 68     83%   74 29.96        
Jun 16 08:56 6 10 Mostly Cloudy BKN007 72 68     87%   73 29.97 30.01      
Jun 16 08:46 3 10 Mostly Cloudy BKN007 72 66     83%   72 29.97        
Jun 16 08:17 5 10 Cloudy OVC005 70 66     88%     29.98        
Jun 16 07:56 3 10 Cloudy SCT003 OVC007 68 67     96%     29.98 30.02      
Jun 16 07:08 3 7 Cloudy FEW001 OVC007 66 66     100%     29.97        
Jun 16 06:56 Calm 2.5 Fog/Mist FEW001 OVC007 66 66     100%     29.97 30.01     0
Jun 16 06:44 3 1.5 Fog/Mist FEW001 OVC007 66 66     100%     29.97        
Jun 16 06:38 W 3 0.75 Fog/Mist SCT001 BKN007 66 64     94%     29.97        
Jun 16 06:34 Calm 1.25 Fog/Mist FEW001 BKN007 66 64     94%     29.97        
Jun 16 06:18 Calm 7 Mostly Cloudy BKN007 64 64     100%     29.97        
Jun 16 06:16 Calm 2.5 Fog/Mist SCT007 64 64     100%     29.97        
Jun 16 06:13 Calm 1 Fog/Mist VV007 64 64     100%     29.97        
Jun 16 06:08   0.5 Fog VV008 64 64     100%     29.97        
Jun 16 06:01 Calm 0.75 Fog/Mist CLR 64 64     100%     29.97        
Jun 16 05:56 3 1.5 Fog/Mist CLR 64 64     100%     29.96 30.01      
Jun 16 05:51 Calm 3 Fog/Mist CLR 64 64     100%     29.96        
Notice The following observation data may not be complete
Jun 16 05:41   1.75 Fog/Mist CLR          %              
Jun 16 04:56 Calm 9 Cloudy OVC041 66 65     96%     29.97 30.01      
Jun 16 03:56 Calm 10 Cloudy OVC035 66 66     100%     29.96 30.01   0  
Jun 16 03:41 Calm 10 Mostly Cloudy FEW010 BKN035 64 64     100%     29.96        
Jun 16 02:56 Calm 10 Cloudy OVC010 66 65     96%     29.96 29.98 0    
Jun 16 02:21 Calm 8 Mostly Cloudy BKN010 66 64     94%     29.95        
Jun 16 01:56 NW 3 10 Clear CLR 66 65     96%     29.95 29.98      
Jun 16 00:56 Calm 10 Clear CLR 66 65     96%     29.95 29.98     0
Jun 15 23:56 Calm 7 Clear CLR 66 66     100%     29.95 29.98      
Jun 15 22:56 Calm 10 Partly Cloudy SCT070 67 67     100%     29.96 29.99      
Jun 15 21:56 Calm 10 Clear CLR 67 67     100%     29.97 30   0  
Jun 15 20:56 W 6 10 Clear CLR 68 67     96%     29.96 29.99 0    
Jun 15 19:56 3 10 Light Rain CLR 68 67     96%     29.96 30 0    
Jun 15 18:56 3 10 Light Rain FEW046 68 67     96%     29.96 30 0   2
Jun 15 18:11 3 10 Rain OVC070 68 66     94%     30   0    
Jun 15 17:56 S 3 8 Thunderstorms and Rain OVC070 68 67     96%         0    
Jun 15 17:29 SE 7 8 Thunderstorms and Rain BKN065 OVC085 68 66     94%     30.01   0    
Jun 15 16:56 SE 7 10 Light Rain FEW038 SCT050 OVC070 68 67     96%     30.02 30.06 0    
Jun 15 16:36 6 10 Rain FEW031 BKN065 BKN100 68 66     94%         0    
Notice The following observation data may not be complete
Jun 15 15:56 8 4 Thunderstorms and Heavy Rain and Fog/Mist FEW020 BKN040 BKN050   67      %         1 1  
Jun 15 15:47 11 3 Thunderstorms and Heavy Rain and Fog/Mist SCT020 BKN027 BKN033 66 66     100%     30   1    
Notice The following observation data may not be complete
Jun 15 15:43 N 10 2 Thunderstorms and Heavy Rain and Fog/Mist SCT020 SCT025 SCT041   66      %     30.01   1    
Jun 15 15:31   1 Thunderstorms and Heavy Rain and Fog/Mist FEW005 SCT020 BKN037 68 66     94%         1    
Jun 15 15:26   1.75 Thunderstorms and Heavy Rain and Fog/Mist FEW003 BKN024 OVC046 70 66     88%         0    
Jun 15 14:56 W 7 10 Thunderstorms FEW048 SCT060 BKN085 90 73     58%   98 29.93 29.95      
Jun 15 13:56 Calm 10 Clear CLR 88 71     57%   94 29.95 29.97      
Jun 15 12:56 6 10 Mostly Cloudy BKN041 89 72     57%   96 29.96 29.98      
Jun 15 11:56 3 10 Mostly Clear FEW080 87 72     61%   94 29.98        
Jun 15 10:56 3 10 Partly Cloudy SCT034 SCT044 85 72     65%   91 30.01 30.04      
Jun 15 09:56 W 6 10 Partly Cloudy SCT024 84 73     70%   90 30.03 30.06      
Jun 15 08:56 5 10 Clear CLR 81 74     79%   86 30.04 30.06      
Jun 15 07:56 W 5 10 Clear CLR 76 71     85%   77 30.04 30.06      
Jun 15 06:56 Calm 10 Clear CLR 71 69     93%   72 30.03 30.05      
Jun 15 05:56 Calm 7 Clear CLR 67 67     100%     30.02 30.04      
Jun 15 04:56 Calm 6 Fog/Mist CLR 67 67     100%     30.01 30.03      
Jun 15 03:56 Calm 10 Clear CLR 68 68     100%     30.01 30.03      
Jun 15 02:56 Calm 10 Clear CLR 69 68     96%     30 30.02      
Jun 15 01:56 Calm 10 Clear CLR 70 69     97%     30.01 30.03      
Jun 15 00:56 Calm 10 Clear CLR 72 70     93%   73 30.02 30.05      
Jun 14 23:56 Calm 10 Clear CLR 71 70     96%   72 30.03 30.06      
Jun 14 22:56 Calm 10 Clear CLR 73 70     90%   74 30.04 30.06      
Jun 14 19:56 Calm 10 Clear CLR 82 72     72%   87 30 30.02      
Jun 14 18:56 Calm 10 Clear CLR 86 71     61%   92 30 30.02      
Jun 14 17:56 5 10 Clear CLR 89 70     53%   94 29.99 30.02      
Jun 14 16:56 7 10 Clear CLR 89 70     53%   94 30 30.02      
Jun 14 15:56 6 10 Mostly Cloudy BKN047 90 69     50%   95 30 30.03      
Jun 14 14:56 S 6 10 Clear CLR 89 71     55%   95 30.02 30.04      
Jun 14 13:56 3 10 Mostly Clear FEW070 89 70     53%   94 30.04 30.06      
Jun 14 12:56 7 10 Mostly Clear FEW060 88 71     57%   94 30.07 30.09      
Jun 14 11:56 3 10 Partly Cloudy SCT055 84 72     67%   90 30.09 30.11      
Jun 14 10:56 Calm 10 Clear CLR 83 72     70%   88 30.1 30.12      
Jun 14 09:56 Calm 10 Partly Cloudy SCT060 81 72     74%   85 30.11 30.14      
Jun 14 08:56 Calm 10 Mostly Cloudy BKN055 78 72     82%   79 30.12 30.14      
Jun 14 07:56 Calm 10 Clear CLR 75 70     84%   76 30.1 30.13      
Jun 14 06:56 Calm 10 Clear CLR 72 69     91%   73 30.08 30.11      
Jun 14 05:56 Calm 8 Clear CLR 67 67     100%     30.07 30.09      
Jun 14 04:56 Calm 10 Clear CLR 68 67     96%     30.05 30.08      
Jun 14 03:56 Calm 10 Clear CLR 67 67     100%     30.04 30.07      
Jun 14 02:56 Calm 10 Clear CLR 69 68     96%     30.04 30.06      
Jun 14 01:56 Calm 10 Clear CLR 70 69     97%     30.04 30.07      
Jun 14 00:56 Calm 10 Clear CLR 71 70     96%   72 30.05 30.08      
Jun 13 23:56 Calm 10 Clear CLR 72 70     93%   73 30.05 30.08      
Jun 13 22:56 Calm 10 Partly Cloudy SCT048 74 71     91%   75 30.05 30.08      
Jun 13 21:56 Calm 10 Clear CLR 74 71     91%   75 30.05 30.08      
Jun 13 20:56 Calm 10 Clear CLR 76 72     88%   77 30.04 30.08      
Jun 13 19:56 Calm 10 Clear CLR 80 71     74%   84 30.05 30.08      
Jun 13 18:56 Calm 10 Clear CLR 86 68     55%   89 30.02 30.05      
Jun 13 17:56 3 9 Clear CLR 87 68     53%   91 30.02 30.05      
Jun 13 16:56 6 10 Mostly Clear FEW060 88 68     52%   92 30.03 30.05      
Jun 13 15:56 S 6 7 Clear CLR 88 68     52%   92 30.03 30.05      
Jun 13 14:56 3 10 Clear CLR 87 69     55%   91 30.05 30.08      
Jun 13 13:56 6 10 Mostly Cloudy BKN037 84 70     63%   88 30.07 30.1      
Jun 13 12:56 5 10 Partly Cloudy SCT035 84 71     65%   89 30.1        
Jun 13 11:56 Calm 10 Mostly Cloudy FEW028 BKN038 82 71     69%   86 30.13 30.16      
Jun 13 11:42 3 10 Mostly Cloudy FEW028 BKN038 82 72     70%   87 30.14        
Jun 13 10:56 Calm 10 Mostly Cloudy BKN024 BKN033 80 70     71%   83 30.15 30.18      
Jun 13 10:41 3 10 Mostly Cloudy BKN022 81 72     74%   85 30.15        
Jun 13 10:13 5 10 Partly Cloudy FEW018 SCT027 81 72     74%   85 30.15        
Jun 13 09:56 3 10 Mostly Cloudy BKN018 BKN027 78 71     79%   79 30.16 30.19      
Jun 13 09:41 Calm 10 Cloudy OVC016 75 70     83%   76 30.17        
Jun 13 09:12 3 10 Cloudy OVC014 75 72     89%   77 30.17        
Jun 13 08:56 Calm 10 Mostly Cloudy FEW005 BKN016 74 71     91%   75 30.17 30.2      
Jun 13 08:54 5 10 Mostly Cloudy FEW005 BKN016 73 72     94%   75 30.17        
Jun 13 08:21 Calm 9 Cloudy OVC003 72 72     100%   73 30.17        
Jun 13 08:08 Calm 6 Fog/Mist OVC001 72 70     94%   73 30.17        
Jun 13 06:56 Calm 0.25 Fog OVC001 69 69     100%     30.15 30.18      
Jun 13 06:19 Calm 0.25 Fog OVC001 68 68     100%     30.14        
Jun 13 05:58 Calm 0.5 Fog OVC001 66 66     100%     30.14        
Jun 13 05:56 Calm 1 Fog/Mist OVC003 67 67     100%     30.14 30.17      
Jun 13 05:54 Calm 1.75 Fog/Mist OVC003 66 66     100%     30.14        
Jun 13 04:56 Calm 10 Mostly Cloudy BKN003 66 66     100%     30.12 30.15      
Jun 13 04:52 Calm 10 Partly Cloudy SCT003 66 66     100%     30.12        
Jun 13 03:56 Calm 10 Clear CLR 67 66     97%     30.11 30.14      
Jun 13 02:56 Calm 10 Clear CLR 67 66     97%     30.11 30.13      
Jun 13 01:56 Calm 10 Clear CLR 67 66     97%     30.11 30.14      
Jun 13 00:56 Calm 10 Clear CLR 68 67     96%     30.11 30.14      
Jun 12 23:56 Calm 10 Clear CLR 68 67     96%     30.12 30.15      
Jun 12 22:56 Calm 10 Clear CLR 69 68     96%     30.12 30.15      
Jun 12 21:56 Calm 10 Clear CLR 71 68     90%   72 30.11 30.14      
Jun 12 20:56 Calm 10 Clear CLR 73 68     84%   74 30.1 30.13      
Jun 12 19:56 Calm 10 Clear CLR 75 67     76%   76 30.1 30.13      
Jun 12 18:56 3 10 Clear CLR 78 67     69%   79 30.09 30.12      
Jun 12 17:56 S 10 10 Mostly Cloudy BKN060 BKN075 81 70     69%   84 30.08 30.11      
Jun 12 16:56 5 10 Clear CLR 84 73     70%   90 30.07 30.1      
Jun 12 14:56 3 10 Mostly Cloudy BKN042 89 71     55%   95 30.09 30.11      
Jun 12 13:56 6 10 Clear CLR 88 71     57%   94 30.11 30.14      
Jun 12 12:56 3 10 Mostly Clear FEW038 86 71     61%   92 30.15 30.17      
Jun 12 11:56 E 6 10 Clear CLR 86 73     65%   93 30.17 30.19      
Jun 12 10:56 Calm 10 Clear CLR 81 71     72%   85 30.19 30.22      
Jun 12 10:32 3 10 Partly Cloudy SCT023 SCT043 81 73     79%   85 30.19        
Jun 12 10:19 Calm 10 Cloudy SCT021 BKN026 OVC055 81 72     74%   85 30.19        
Jun 12 09:56 3 10 Mostly Cloudy SCT023 BKN032 81 73     77%   86 30.19 30.22      
Jun 12 09:51 Calm 10 Partly Cloudy SCT023 SCT034 81 73     79%   85 30.19        
Jun 12 09:17 Calm 10 Mostly Cloudy SCT013 BKN021 79 73     84%   82 30.2        
Jun 12 08:56 3 7 Mostly Clear FEW013 78 73     85%   80 30.2 30.23      
Jun 12 08:17 3 10 Cloudy BKN011 OVC120 77 72     83%   78 30.2        
Jun 12 07:56 Calm 10 Partly Cloudy SCT011 76 73     91%   77 30.19 30.22      
Jun 12 06:56 Calm 10 Partly Cloudy SCT012 72 71     97%   73 30.18 30.2      
Jun 12 05:56 Calm 10 Clear CLR 70 69     97%     30.16 30.19      
Jun 12 04:56 Calm 10 Mostly Cloudy FEW028 BKN034 70 69     97%     30.15 30.18      
Jun 12 04:15 Calm 10 Mostly Cloudy BKN030 72 70     94%   73 30.15        
Jun 12 03:56 NW 5 10 Cloudy OVC028 71 70     96%   72 30.15 30.17      
Jun 12 03:52 3 10 Mostly Cloudy BKN028 72 70     94%   73 30.15        
Jun 12 02:56 3 10 Clear CLR 74 70     87%   75 30.14 30.16      
Jun 12 01:56 Calm 10 Clear CLR 74 71     91%   75 30.14 30.16      
Jun 12 00:56 Calm 10 Clear CLR 73 70     90%   74 30.14 30.16      
Jun 11 23:56 3 10 Mostly Clear FEW046 77 70     79%   78 30.15 30.17      
Jun 11 22:56 8 10 Partly Cloudy SCT048 SCT060 79 70     74%   82 30.14 30.17      
Jun 11 21:56 Calm 10 Clear CLR 76 72     88%   77 30.13 30.15      
Jun 11 20:56 Calm 10 Clear CLR 76 72     88%   77 30.11 30.14      
Jun 11 19:56 Calm 10 Clear CLR 81 72     74%   85 30.09 30.12      
Jun 11 18:56 S 3 10 Clear CLR 86 70     59%   91 30.09 30.12      
Jun 11 17:56 S 5 10 Clear CLR 85 70     61%   89 30.08 30.11      
Jun 11 16:56 5 10 Clear CLR 88 70     55%   93 30.1 30.13      
Jun 11 15:56 SE 7 10 Partly Cloudy FEW050 SCT090 88 71     57%   94 30.11 30.14      
Jun 11 14:56 5 10 Partly Cloudy SCT060 SCT090 88 70     55%   93 30.13 30.16      
Jun 11 13:56 SE 6 10 Partly Cloudy FEW036 SCT045 SCT065 87 72     61%   94 30.14 30.17      
Jun 11 12:56 6 10 Mostly Clear FEW031 86 73     65%   93 30.16 30.19      
Jun 11 12:09 E 7 10 Partly Cloudy SCT029 86 73     66%   93 30.17        
Jun 11 11:56 8 10 Mostly Cloudy BKN029 BKN060 84 72     67%   90 30.17 30.2      
Jun 11 10:56 SE 5 10 Mostly Cloudy BKN025 82 72     72%   87 30.18 30.22      
Jun 11 10:20 Calm 10 Mostly Cloudy BKN021 81 72     74%   85 30.18        
Jun 11 09:56 6 10 Partly Cloudy SCT019 80 71     74%   84 30.18 30.22      
Jun 11 09:40 E 5 10 Mostly Clear FEW019 79 72     79%   82 30.18        
Jun 11 09:24 6 10 Mostly Cloudy BKN019 79 70     74%   80 30.19        
Jun 11 08:56 Calm 10 Mostly Cloudy SCT019 BKN065 76 69     79%   77 30.19 30.22      
Jun 11 08:46 Calm 10 Mostly Cloudy BKN019 BKN065 75 68     78%   76 30.19        
Jun 11 07:56 Calm 10 Clear CLR 71 66     84%   72 30.18 30.21      
Jun 11 06:56 Calm 10 Clear CLR 66 64     93%     30.16 30.19      
Jun 11 05:56 Calm 10 Clear CLR 62 61     96%     30.14 30.17      
Jun 11 04:56 Calm 10 Clear CLR 62 61     96%     30.12 30.15      
Jun 11 03:56 Calm 10 Mostly Clear FEW065 63 62     97%     30.11 30.14      
Jun 11 02:56 Calm 10 Clear CLR 63 62     97%     30.11 30.14      
Jun 11 01:56 Calm 10 Clear CLR 64 63     96%     30.11 30.14      
Jun 11 00:56 3 10 Clear CLR 66 64     93%     30.12 30.15      
Jun 10 23:56 Calm 10 Clear CLR 66 64     93%     30.12 30.15      
Jun 10 22:56 Calm 10 Clear CLR 67 64     90%     30.12 30.15      
Jun 10 21:56 Calm 10 Clear CLR 70 64     81%     30.11 30.14      
Jun 10 20:56 Calm 10 Clear CLR 74 64     71%   74 30.08 30.11      
Jun 10 19:56 S 5 10 Clear CLR 79 63     58%   79 30.06 30.1      
Jun 10 18:56 S 3 10 Clear CLR 83 64     53%   84 30.05 30.09      
Jun 10 17:56 5 10 Mostly Clear FEW080 85 63     48%   86 30.04 30.08      
Jun 10 16:56 S 6 10 Clear CLR 86 63     46%   87 30.05 30.08      
Jun 10 15:56 5 10 Clear CLR 86 62     45%   87 30.06 30.09      
Jun 10 14:56 S 8 10 Mostly Clear FEW080 85 60     43%   85 30.07 30.11      
Jun 10 13:56 9 9 Partly Cloudy SCT070 86 61     43%   86 30.08 30.11      
Jun 10 11:56 5 10 Clear CLR 83 64     53%   84 30.1 30.14      
Jun 10 10:56 Calm 10 Clear CLR 81 64     56%   83 30.11 30.15      
Jun 10 09:56 Calm 10 Clear CLR 77 66     69%   78 30.11 30.15      
Jun 10 08:56 Calm 10 Mostly Cloudy BKN080 70 65     84%     30.11 30.15      
Jun 10 07:56 Calm 10 Mostly Cloudy FEW060 BKN080 66 64     93%     30.1 30.14      
Jun 10 06:56 Calm 10 Mostly Clear FEW075 62 61     96%     30.07 30.11      
Jun 10 04:56 Calm 10 Mostly Clear FEW070 60 59     96%     30.03 30.07      
Jun 10 03:56 Calm 10 Mostly Clear FEW070 60 60     100%     30.02 30.05      
Jun 10 02:56 Calm 10 Partly Cloudy SCT065 61 60     97%     30.01 30.05      
Jun 10 01:56 Calm 9 Clear CLR 62 62     100%     30 30.04      
Jun 10 00:56 Calm 10 Clear CLR 63 62     97%     30.01 30.04      
Jun 09 23:56 Calm 10 Clear CLR 63 62     97%     30.01 30.05      
Jun 09 22:56 Calm 10 Clear CLR 65 63     93%     30.01 30.04      
Jun 09 21:56 Calm 10 Clear CLR 67 64     90%     29.99 30.03      
Jun 09 20:56 Calm 10 Clear CLR 69 66     90%     29.96 30      
Jun 09 19:56 Calm 10 Clear CLR 74 64     71%   74 29.95 29.98      
Jun 09 18:56 S 3 10 Clear CLR 81 62     53%   82 29.94 29.97      
Jun 09 17:56 S 3 10 Mostly Clear FEW060 83 61     48%   83 29.93 29.97      
Jun 09 16:56 3 10 Clear CLR 82 60     47%   82 29.94 29.98      
Jun 09 15:56 S 6 8 Mostly Cloudy BKN065 83 61     48%   83 29.95 29.99      
Jun 09 14:56 5 10 Mostly Clear FEW060 83 60     46%   83 29.96 30      
Jun 09 13:56 SE 3 10 Mostly Clear FEW060 82 59     46%   82 29.97 30.01      
Jun 09 12:56 Calm 10 Mostly Clear FEW049 80 59     49%   81 29.98 30.02      
Jun 09 11:56 W 7 10 Partly Cloudy SCT047 79 62     56%   79 30 30.03      
Jun 09 10:56 Calm 10 Clear CLR 77 61     58%   77 30 30.04      
Jun 09 09:56 3 10 Clear CLR 76 62     62%   76 30        
Jun 09 08:56 Calm 10 Clear CLR 72 61     68%   72 30 30.03      
Jun 09 06:56 Calm 10 Partly Cloudy SCT060 61 59     93%     29.98 30.02      
Jun 09 05:56 Calm 10 Mostly Cloudy BKN055 56 56     100%     29.96 30.01      
Jun 09 04:56 Calm 10 Clear CLR 56 56     100%     29.94        
Jun 09 03:56 Calm 10 Clear CLR 57 56     96%     29.93 29.97      
Jun 09 02:56 Calm 10 Clear   58 57     97%     29.92 29.96      
Jun 09 01:56 Calm 9 Mostly Clear FEW055 60 58     93%     29.93 29.96      
Jun 09 00:56 Calm 10 Clear CLR 60 58     93%     29.93 29.97      
Jun 08 23:56 Calm 10 Clear   61 59     93%     29.93 29.97      
Jun 08 22:56 Calm 10 Mostly Clear FEW060 62 60     93%     29.93 29.97      
Jun 08 21:56 Calm 10 Clear CLR 64 60     87%     29.92 29.96      
Jun 08 20:56 NW 3 10 Clear CLR 69 59     70%     29.89 29.93      
Jun 08 19:56 NW 5 10 Clear CLR 72 60     66%   72 29.88 29.92      
Jun 08 18:56 6 10 Clear CLR 77 60     56%   77 29.87 29.91      
Jun 08 16:56 10 10 Partly Cloudy SCT050 80 61     52%   81 29.86 29.9      
Jun 08 15:56 8 10 Partly Cloudy FEW050 SCT070 SCT090 81 62     53%   82 29.87 29.91      
Jun 08 14:56 W 7 10 Mostly Cloudy SCT050 BKN090 78 62     58%   78 29.88 29.92      
Jun 08 13:56 3 10 Partly Cloudy SCT047 SCT060 80 60     51%   81 29.9 29.93      
Jun 08 12:56 W 5 10 Clear CLR 78 61     56%   78 29.92 29.96      
Jun 08 11:56 3 10 Partly Cloudy FEW029 SCT037 77 63     62%   77 29.93 29.97      
Jun 08 10:56 Calm 10 Mostly Cloudy FEW043 SCT065 BKN080 72 62     71%   72 29.94 29.98      
Jun 08 09:56 Calm 10 Cloudy BKN041 BKN047 OVC065 70 60     71%     29.95 29.98      
Jun 08 08:56 Calm 10 Mostly Cloudy BKN041 BKN050 BKN070 67 58     73%     29.95 29.99      
Jun 08 08:17 3 10 Cloudy FEW023 OVC037 64 59     83%     29.95        
Jun 08 07:56 3 10 Cloudy BKN023 OVC039 63 58     84%     29.94 29.98      
Jun 08 07:51 NW 3 10 Mostly Cloudy BKN023 63 57     83%     29.94        
Jun 08 06:56 Calm 10 Mostly Clear FEW038 60 57     90%     29.93 29.97      
Jun 08 05:56 N 5 10 Cloudy BKN032 OVC041 59 56     90%     29.92 29.96      
Jun 08 03:56 NW 5 10 Mostly Clear FEW046 59 56     90%     29.88 29.92      
Jun 08 02:56 Calm 10 Clear CLR 59 56     90%     29.88 29.92      
Jun 08 01:56 N 5 10 Clear CLR 62 56     80%     29.89 29.93      
Jun 08 00:56 N 5 10 Clear CLR 63 56     78%     29.9 29.93      
Jun 07 23:56 N 5 10 Clear CLR 65 56     73%     29.9        
Jun 07 22:56 N 7 10 Clear CLR 66 55     68%     29.9 29.94      
Jun 07 21:56 5 10 Clear CLR 68 55     63%     29.89 29.93      
Jun 07 20:56 N 6 10 Clear CLR 70 54     57%     29.87 29.91      
Jun 07 19:56 N 6 10 Clear CLR 72 54     53%   71 29.87 29.91      
Jun 07 18:56 N 9 10 Clear CLR 77 55     47%   77 29.85 29.89      
Jun 07 17:56 N 6 10 Mostly Cloudy BKN075 80 58     47%   80 29.84 29.88      
Jun 07 16:56 N 13 10 Clear CLR 81 54     39%   81 29.83 29.86      
Jun 07 15:56 14 10 Clear CLR 82 54     38%   81 29.83 29.86      
Jun 07 14:56   10 Clear CLR 81 57     44%   81 29.83 29.86      
Jun 07 13:56 N 10 10 Clear CLR 81 60     49%   82 29.83 29.87      
Jun 07 12:56 9 10 Mostly Cloudy BKN046 79 61     54%   79 29.84 29.87      
Jun 07 11:56 NE 10 10 Clear CLR 78 62     58%   78 29.85 29.88      
Jun 07 10:56 15 10 Clear CLR 76 62     62%   76 29.85 29.89      
Jun 07 09:56 E 11 10 Clear CLR 75 61     62%   75 29.85 29.89      
Jun 07 08:56 NE 8 10 Clear CLR 72 59     64%   72 29.85 29.89      
Jun 07 07:56 7 10 Clear CLR 68 59     73%     29.86 29.89      
Jun 06 14:56 5 10 Partly Cloudy SCT014 77 73     88%   79 29.78 29.81      
Jun 06 14:26 NE 3 10 Partly Cloudy FEW012 SCT019 75 72     89%   77 29.78        
Jun 06 13:56 Calm 10 Mostly Cloudy SCT010 BKN019 76 72     88%   77 29.79 29.83      
Jun 06 13:35 Calm 10 Partly Cloudy SCT010 SCT017 75 72     89%   77 29.8        
Jun 06 13:02 Calm 10 Mostly Cloudy BKN010 BKN018 75 72     89%   77 29.81        
Jun 06 12:56 Calm 10 Light Rain SCT010 SCT018 75 71     88%   76 29.81 29.85 0   0
Jun 06 11:56 3 10 Light Rain CLR 74 71     91%   75 29.82 29.86 0    
Jun 06 10:56 5 10 Light Rain CLR 74 71     91%   75 29.83 29.87 0    
Jun 06 09:56 N 3 8 Light Rain SCT004 SCT008 BKN033 72 71     97%   73 29.83 29.87 0 0  
Jun 06 09:49 N 3 7 Light Rain SCT004 SCT010 OVC033 72 72     100%   73 29.84   0    
Jun 06 08:56 Calm 3 Rain and Fog/Mist FEW027 OVC039 71 70     96%   72 29.84 29.88 0    
Jun 06 08:38 Calm 1.75 Rain and Fog/Mist FEW012 SCT026 OVC039 72 70     94%   73 29.84   0    
Jun 06 08:31 Calm 3 Rain and Fog/Mist SCT012 BKN036 OVC042 72 70     94%   73 29.85   0    
Jun 06 07:56 Calm 5 Light Rain and Fog/Mist BKN012 OVC043 71 71     100%   73 29.84 29.87 0    
Jun 06 07:28 NE 3 6 Light Rain and Fog/Mist BKN012 BKN020 OVC060 72 70     94%   73 29.83   0    
Jun 06 06:56 Calm 8 Cloudy SCT005 BKN060 OVC090 71 70     96%   72 29.83 29.86      
Jun 06 06:16 NE 5 9 Cloudy OVC005 70 70     100%     29.82        
Jun 06 05:56 Calm 5 Fog/Mist BKN003 OVC100 70 70     100%     29.82 29.85      
Jun 06 04:56 Calm 6 Fog/Mist BKN003 70 70     100%     29.81 29.84      
Jun 06 04:23 Calm 7 Partly Cloudy SCT003 70 70     100%     29.8        
Jun 06 03:56 Calm 7 Clear CLR 70 70     100%     29.8 29.83      
Jun 06 02:56 Calm 4 Fog/Mist FEW065 70 70     100%     29.81 29.84      
Jun 06 01:56 Calm 6 Fog/Mist FEW003 BKN080 70 70     100%     29.82 29.86      
Jun 06 01:40 3 5 Fog/Mist FEW003 SCT080 70 70     100%     29.82        
Jun 06 00:56 Calm 8 Clear CLR 71 70     96%   72 29.83 29.86 0   0
Jun 05 23:56 Calm 10 Light Rain CLR 71 70     96%   72 29.84 29.86 0    
Jun 05 22:56 Calm 10 Clear CLR 71 71     100%   73 29.83 29.86 0    
Jun 05 21:56 Calm 10 Clear   72 71     97%   73 29.83 29.86 0 0  
Jun 05 20:56 Calm 10 Light Rain CLR 72 71     97%   73 29.82 29.85 0    
Jun 05 20:30 Calm 10 Partly Cloudy FEW023 SCT120 73 72     94%   75 29.81        
Jun 05 19:56 5 10 Mostly Cloudy FEW009 BKN019 73 71     94%   74 29.81 29.84      
Jun 05 19:44 3 10 Mostly Cloudy FEW009 SCT017 BKN110 73 72     94%   75 29.81        
Jun 05 18:56 6 10 Mostly Clear FEW022 76 73     91%   77 29.8 29.83     0
Jun 05 17:56 7 10 Mostly Cloudy BKN110 77 72     84%   78 29.81 29.84 0    
Jun 05 16:56 3 10 Mostly Clear FEW100 77 73     88%   79 29.8 29.83      
Jun 05 15:56 Calm 10 Partly Cloudy FEW010 SCT110 77 73     88%   79 29.81 29.84 0 0  
Jun 05 14:56 Calm 10 Partly Cloudy FEW030 SCT039 74 72     94%   75 29.82 29.85 0    
Jun 05 13:56 5 10 Light Rain FEW046 SCT065 BKN080 74 71     91%   75 29.85 29.88 0    
Jun 05 12:56 9 10 Light Rain SCT020 BKN035 BKN050 75 72     90%   76 29.85   0   0
Jun 05 12:38 14 4 Heavy Rain and Fog/Mist BKN022 BKN027 OVC085 75 72     89%   77 29.85   0    
Jun 05 12:25 9 10 Mostly Cloudy SCT027 SCT037 BKN055 79 70     74%   80 29.84        
Jun 05 11:56 W 9 10 Mostly Cloudy FEW022 SCT031 BKN048 81 72     74%   85 29.84 29.87      
Jun 05 11:11 7 10 Cloudy BKN016 BKN021 OVC036 79 73     84%   82 29.86        
Jun 05 10:56 7 10 Mostly Cloudy SCT016 SCT021 BKN090 78 72     82%   79 29.86 29.89      
Notice The following observation data may not be complete
Jun 05 10:24   10 Cloudy FEW012 SCT070 OVC085          %              
Jun 05 09:56 7 10 Cloudy BKN012 OVC070 76 72     88%   77 29.88 29.91      
Jun 05 09:26 9 10 Cloudy BKN014 OVC075 75 72     89%   77 29.88        
Jun 05 08:56 6 10 Cloudy BKN009 OVC018 75 72     90%   76 29.88 29.91      
Jun 05 07:56 3 10 Cloudy BKN007 OVC010 73 72     96%   75 29.88 29.91      
Jun 05 06:56 6 10 Mostly Cloudy BKN007 72 71     97%   73 29.87 29.9     0
Jun 05 06:27 Calm 10 Cloudy BKN007 BKN065 OVC080 72 72     100%   73 29.87        
Jun 05 06:15 Calm 10 Mostly Cloudy SCT007 BKN070 BKN080 72 72     100%   73 29.87        
Jun 05 05:56 Calm 10 Cloudy FEW013 BKN065 OVC085 71 70     96%   72 29.87 29.91 0    
Jun 05 04:56 Calm 10 Cloudy OVC060 71 70     96%   72 29.86 29.89      
Jun 05 03:56 Calm 9 Mostly Cloudy FEW004 SCT044 BKN085 71 71     100%   73 29.86 29.89   0  
Jun 05 03:46 Calm 10 Cloudy FEW004 OVC044 72 72     100%   73 29.86        
Jun 05 02:56 Calm 10 Mostly Cloudy BKN008 71 71     100%   73 29.86 29.89      
Jun 05 02:29 Calm 10 Mostly Cloudy BKN008 72 70     94%   73 29.87        
Jun 05 02:09 Calm 10 Mostly Clear FEW008 72 72     100%   73 29.86        
Jun 05 01:56 Calm 10 Partly Cloudy SCT095 71 71     100%   73 29.87 29.9 0    
Jun 05 01:28 Calm 10 Cloudy FEW009 OVC090 72 72     100%   73 29.88   0    
Jun 05 00:56 5 10 Light Rain OVC009 72 71     97%   73 29.9 29.92 0   0
Jun 04 23:54 Calm 10 Clear   72 72     100%   73 29.9        
Jun 04 22:56 Calm 10 Cloudy BKN011 OVC020 73 72     96%   75 29.91   0    
Jun 04 22:50 Calm 10 Cloudy BKN011 OVC020 72 72     100%   73 29.91   0    
Jun 04 21:56 10 8 Heavy Rain FEW014 BKN029 OVC037 73 72     96%   75 29.9 29.93 0 0  
Jun 04 21:46 5 10 Light Rain FEW019 BKN033 OVC040 73 72     94%   75 29.9   0    
Jun 04 21:31 Calm 5 Rain and Fog/Mist SCT021 BKN027 OVC047 73 72     94%   75 29.89   0    
Jun 04 20:56 Calm 10 Cloudy BKN055 BKN070 OVC080 75 73     94%   77 29.89 29.92      
Jun 04 19:56 W 3 10 Cloudy BKN080 OVC090 75 72     90%   76 29.88 29.92 0    
Jun 04 18:56 3 10 Cloudy SCT065 OVC085 78 71     79%   79 29.89 29.92     0
Jun 04 17:56 Calm 10 Partly Cloudy SCT100 78 71     79%   79 29.88 29.91      
Jun 04 16:56 5 10 Mostly Clear FEW100 78 69     74%   79 29.88 29.91      
Jun 04 15:56 7 10 Partly Cloudy SCT036 85 72     65%   91 29.88 29.91   0  
Jun 04 14:56 5 10 Mostly Clear FEW025 82 72     72%   87 29.9 29.93 0    
Jun 04 13:56 6 10 Mostly Clear FEW030 80 73     79%   84 29.93 29.96      
Jun 04 13:54 7 10 Mostly Clear FEW030 81 73     79%   85 29.93        
Jun 04 12:56 3 10 Mostly Cloudy BKN024 81 72     74%   85 29.95 29.98     0
Jun 04 12:15 SE 5 10 Partly Cloudy FEW016 SCT042 81 72     74%   85 29.97        
Jun 04 11:56 Calm 10 Mostly Cloudy SCT016 BKN022 BKN036 80 72     76%   84 29.98 30.01      
Jun 04 11:40 Calm 10 Mostly Cloudy SCT016 BKN022 79 72     79%   82 29.99        
Jun 04 10:56 3 10 Cloudy BKN012 BKN019 OVC032 78 72     82%   79 30 30.03      
Jun 04 10:19 3 10 Cloudy BKN010 OVC016 77 73     89%   79 30.01        
Jun 04 09:56 Calm 10 Mostly Cloudy BKN008 BKN016 76 72     88%   77 30.01 30.04 0 0  
Jun 04 09:37 3 10 Mostly Cloudy SCT006 BKN010 75 73     94%   77 30.01   0    
Jun 04 08:56 Calm 10 Mostly Cloudy BKN004 74 73     97%   76 30.01 30.04 0    
Jun 04 08:20 Calm 10 Mostly Cloudy BKN006 BKN100 73 72     94%   75 30.01        
Jun 04 07:56 Calm 10 Partly Cloudy FEW004 SCT100 SCT120 73 71     94%   74 30.01 30.04 0    
Jun 04 07:46 Calm 10 Mostly Cloudy FEW019 BKN110 73 72     94%   75 30.01   0    
Jun 04 07:17 Calm 10 Cloudy BKN019 OVC090 72 72     100%   73 30.01        
Jun 04 06:56 Calm 10 Mostly Cloudy FEW019 BKN070 BKN090 71 70     96%   72 30.02   0   0
Jun 04 04:56 Calm 10 Partly Cloudy SCT075 70 69     97%     30 30.03 0    
Jun 04 03:56 Calm 10 Light Rain FEW049 SCT080 BKN100 71 70     96%   72 29.99 30.02 0 0  
Jun 04 02:56 Calm 10 Cloudy BKN070 OVC100 71 69     93%   72 30 30.02      
Jun 04 01:56 Calm 10 Mostly Clear FEW110 71 69     93%   72 30 30.02      
Jun 04 00:56 Calm 10 Partly Cloudy SCT120 71 69     93%   72 30.01 30.04      
Jun 03 23:56 Calm 10 Mostly Clear FEW120 71 69     93%   72 30.02 30.05      
Jun 03 22:56 Calm 10 Mostly Cloudy SCT100 BKN120 72 69     91%   73 30.03 30.06      
Jun 03 21:56 Calm 10 Mostly Cloudy BKN090 72 69     91%   73 30.03 30.06      
Jun 03 19:56 W 3 10 Partly Cloudy FEW055 SCT090 74 69     85%   75 30.01 30.05      
Jun 03 19:19 5 10 Mostly Cloudy SCT070 BKN085 75 70     83%   76 30.01        
Jun 03 18:56 5 10 Partly Cloudy SCT050 77 68     74%   78 30 30.04      
Jun 03 18:51 3 10 Mostly Cloudy BKN050 77 68     74%   78 30.01        
Jun 03 18:39 8 10 Partly Cloudy SCT050 SCT060 SCT120 77 68     74%   78 30        
Jun 03 18:31 7 10 Mostly Cloudy SCT055 BKN120 77 68     74%   78 29.99        
Jun 03 17:56 S 7 9 Clear CLR 84 70     63%   88 29.98 30.01      
Jun 03 16:56 5 10 Clear CLR 88 68     52%   92 29.97 29.99      
Jun 03 15:56 5 10 Clear CLR 87 68     53%   91 29.98 30.01      
Jun 03 14:56 5 6 Haze CLR 88 69     54%   92 30 30.03      
Jun 03 13:56 Calm 10 Clear CLR 87 69     55%   91 30.02 30.05      
Jun 03 12:56 3 10 Clear CLR 84 69     61%   88 30.04 30.07      
Jun 03 11:56 6 10 Mostly Clear FEW090 83 70     65%   87 30.07        
Jun 03 10:56 NE 6 10 Mostly Clear FEW085 82 71     69%   86 30.08 30.11      
Jun 03 09:56 NE 8 10 Mostly Clear FEW110 79 70     74%   82 30.09 30.12      
Jun 03 08:56 7 10 Mostly Cloudy FEW055 BKN100 77 69     77%   78 30.1 30.13      
Jun 03 07:56 Calm 10 Mostly Cloudy FEW055 BKN085 72 69     91%   73 30.1 30.13      
Jun 03 06:56 Calm 6 Fog/Mist CLR 68 67     96%     30.08 30.11      
Jun 03 06:10   4 Fog/Mist BKN110 66 64     94%     30.07        
Jun 03 05:58 3 2 Fog/Mist FEW110 64 64     100%     30.06        
Jun 03 05:56 3 0.75 Fog/Mist CLR 65 65     100%     30.06 30.1      
Jun 03 05:48 Calm 0.5 Fog CLR 64 64     100%     30.06        
Jun 03 05:41 Calm 2 Fog/Mist CLR 64 64     100%     30.06        
Jun 03 05:04 Calm 3 Fog/Mist CLR 66 66     100%     30.04        
Jun 03 04:56 Calm 1.75 Fog/Mist CLR 66 65     96%     30.04 30.08      
Jun 03 04:53 Calm 1.75 Fog/Mist CLR 66 66     100%     30.04        
Jun 03 03:56 Calm 5 Fog/Mist SCT120 67 67     100%     30.03 30.06      
Jun 03 02:56 5 4 Fog/Mist CLR 67 67     100%     30.03 30.06      
Jun 03 01:56 Calm 8 Cloudy OVC120 69 69     100%     30.03 30.06      
Jun 03 00:56 Calm 10 Cloudy OVC120 70 69     97%     30.05 30.08      
Jun 02 23:56 Calm 10 Cloudy OVC120 70 70     100%     30.05 30.08      
Jun 02 22:56 Calm 10 Cloudy OVC120 71 70     96%   72 30.06 30.09      
Jun 02 21:56 Calm 10 Cloudy OVC120 71 70     96%   72 30.06 30.09      
Jun 02 20:56 3 10 Clear CLR 71 70     96%   72 30.04 30.08      
Jun 02 19:56 Calm 10 Clear CLR 75 71     88%   76 30.01 30.05      
Jun 02 18:56 Calm 10 Clear CLR 81 69     67%   84 30.01 30.04      
Jun 02 17:56 W 3 10 Clear CLR 80 72     76%   84 30.01 30.04      
Jun 02 16:56 5 10 Clear CLR 81 71     72%   85 30.03 30.06      
Jun 02 15:56 3 10 Clear CLR 83 66     57%   85 30.04 30.06      
Jun 02 14:56 5 10 Mostly Clear FEW044 83 67     59%   86 30.04 30.07      
Jun 02 13:56 E 3 7 Clear   83 67     59%   86 30.06 30.09      
Jun 02 12:56 6 10 Clear CLR 84 67     57%   87 30.08 30.11      
Jun 02 11:56 SE 7 10 Clear CLR 82 68     63%   85 30.09 30.12      
Jun 02 10:56 Calm 9 Partly Cloudy SCT110 79 70     74%   82 30.1 30.14      
Jun 02 09:56 Calm 10 Mostly Clear FEW110 75 69     82%   76 30.12 30.15      
Jun 02 08:56 Calm 10 Mostly Cloudy FEW006 BKN110 72 69     91%   73 30.13 30.16      
Jun 02 07:56 Calm 10 Cloudy OVC110 70 69     97%     30.12 30.15      
Jun 02 06:56 3 10 Cloudy OVC110 68 67     96%     30.11 30.15      
Jun 02 05:56 Calm 10 Mostly Cloudy FEW004 BKN120 67 67     100%     30.09 30.13      
Jun 02 04:56 Calm 10 Clear CLR 68 67     96%     30.08 30.11      
Jun 02 03:56 Calm 10 Clear CLR 68 67     96%     30.07 30.1      
Jun 02 02:56 Calm 10 Clear CLR 68 67     96%     30.06 30.09      
Jun 02 01:56 Calm 10 Clear CLR 67 67     100%     30.06 30.09      
Jun 02 00:56 Calm 10 Clear CLR 68 67     96%     30.07 30.1      
Jun 01 23:56 Calm 10 Clear CLR 69 68     96%     30.07 30.1      
Jun 01 22:56 Calm 10 Clear CLR 71 69     93%   72 30.07 30.1      
Jun 01 21:56 5 10 Clear CLR 72 69     91%   73 30.08 30.11      
Jun 01 20:56 Calm 10 Clear CLR 72 70     93%   73 30.07 30.11      
Jun 01 19:56 Calm 10 Clear CLR 74 70     87%   75 30.06 30.1      
Jun 01 18:56 Calm 10 Clear CLR 76 71     85%   77 30.06 30.09      
Jun 01 17:56 S 5 10 Clear CLR 78 69     74%   79 30.04 30.08      
Jun 01 16:56 5 10 Clear CLR 80 69     69%   83 30.04 30.08      
Jun 01 15:56 SE 7 9 Clear CLR 81 69     67%   84 30.06 30.09      
Jun 01 13:56 Calm 10 Clear CLR 84 66     55%   86 30.09 30.12      
Jun 01 12:56 Calm 10 Clear CLR 82 65     56%   84 30.11 30.14      
Jun 01 11:56 5 9 Clear CLR 83 66     57%   85 30.13 30.16      
Jun 01 10:56 Calm 9 Clear CLR 80 67     64%   82 30.13 30.16      
Jun 01 09:56 Calm 9 Clear CLR 77 69     77%   78 30.14 30.17      
Jun 01 08:56 Calm 9 Clear CLR 72 68     87%   73 30.14 30.18      
Jun 01 08:06 Calm 3 Fog/Mist SCT001 68 66     94%     30.14        
Jun 01 08:01 Calm 1.5 Fog/Mist SCT001 68 66     94%     30.14        
Jun 01 07:56 Calm 0.75 Fog/Mist BKN001 67 67     100%     30.14 30.17      
Jun 01 07:48 Calm 0.5 Fog OVC001 66 66     100%     30.14        
Jun 01 07:33 Calm 0.75 Fog/Mist OVC001 66 64     94%     30.14        
Jun 01 06:56 Calm 0.25 Fog OVC001 65 64     97%     30.14 30.17      
Jun 01 06:29 Calm 0.25 Fog OVC001 64 63     94%     30.13        
Jun 01 05:56 Calm 0.5 Fog OVC001 63 62     97%     30.13 30.16      
Jun 01 05:39 Calm 0.25 Fog BKN001 63 63     100%     30.12        
Jun 01 05:36 Calm 1 Fog/Mist BKN001 63 63     100%     30.12        
Jun 01 05:29 Calm 8 Mostly Cloudy BKN001 63 63     100%     30.11        
Jun 01 04:56 Calm 5 Fog/Mist CLR 63 62     97%     30.11 30.14      
Jun 01 03:56 NW 3 8 Clear CLR 64 63     96%     30.1 30.13      
Jun 01 03:35 3 3 Fog/Mist CLR 63 63     100%     30.09        
Jun 01 03:31 Calm 1.25 Fog/Mist CLR 63 63     100%     30.09        
Jun 01 03:29 Calm 0.75 Fog/Mist CLR 63 63     100%     30.09        
Jun 01 03:22 S 3 1.75 Fog/Mist CLR 63 63     100%     30.09        
Jun 01 02:56 Calm 10 Clear CLR 65 64     97%     30.08 30.12      
Jun 01 01:56 Calm 9 Clear CLR 65 65     100%     30.09 30.12      
Jun 01 00:56 Calm 10 Clear CLR 66 66     100%     30.09 30.13      
May 31 23:56 3 10 Clear CLR 67 66     97%     30.11 30.14      
May 31 22:56 Calm 10 Clear CLR 68 67     96%     30.11 30.15      
May 31 20:56 3 10 Clear CLR 71 68     90%   72 30.09 30.12      
May 31 19:56 Calm 10 Clear CLR 74 69     85%   75 30.07 30.11      
May 31 18:56 Calm 10 Clear CLR 81 67     62%   83 30.07 30.1      
May 31 17:56 5 10 Clear CLR 84 65     53%   86 30.05 30.09      
May 31 16:56 Calm 9 Clear CLR 84 63     49%   85 30.06 30.09      
May 31 15:56 Calm 10 Partly Cloudy SCT050 SCT060 84 65     53%   86 30.07 30.1      
May 31 14:56 Calm 10 Mostly Clear FEW044 84 63     49%   85 30.08 30.11      
May 31 13:56 3 10 Mostly Clear FEW039 83 68     61%   86 30.1 30.13      
May 31 12:56 S 6 10 Clear CLR 79 67     67%   80 30.12 30.15      
May 31 11:56 6 10 Partly Cloudy SCT031 79 68     69%   80 30.13        
May 31 10:56 5 10 Partly Cloudy FEW023 SCT030 78 68     71%   79 30.14 30.18      
May 31 10:38 NW 7 10 Mostly Cloudy SCT020 BKN025 77 68     74%   78 30.14        
May 31 09:56 Calm 10 Clear CLR 75 69     82%   76 30.14 30.18      
May 31 09:42 Calm 10 Mostly Clear FEW010 73 68     83%   74 30.14        
May 31 09:27 Calm 10 Mostly Cloudy BKN010 73 68     83%   74 30.15        
May 31 08:56 W 5 10 Mostly Cloudy BKN008 72 68     87%   73 30.15 30.19      
May 31 08:12 Calm 10 Partly Cloudy SCT004 70 66     88%     30.14        
May 31 07:56 Calm 10 Clear CLR 68 67     96%     30.14 30.18      
May 31 07:09 Calm 10 Partly Cloudy SCT002 66 66     100%     30.14        
May 31 06:56 Calm 10 Clear CLR 67 66     97%     30.13 30.17     0
May 31 05:56 Calm 6 Fog/Mist SCT029 65 65     100%     30.13 30.17      
May 31 05:39 Calm 4 Fog/Mist CLR 64 64     100%     30.13        
Notice The following observation data may not be complete
May 31 05:26   2 Fog/Mist FEW032          %              
May 31 05:21 Calm 1 Fog/Mist FEW002 SCT031 66 64     94%     30.13        
May 31 05:10 W 3 0.5 Fog SCT002 BKN031 64 64     100%     30.13        
May 31 04:56 Calm 0.25 Fog BKN002 OVC120 65 65     100%     30.12 30.16      
May 31 04:50 3 0.75 Fog/Mist BKN002 OVC120 64 64     100%     30.12        
May 31 04:48 3 1.25 Fog/Mist BKN002 OVC120 64 64     100%     30.12        
May 31 04:36 Calm 3 Fog/Mist BKN002 BKN120 64 64     100%     30.11        
May 31 04:32 Calm 1.25 Fog/Mist BKN002 OVC120 66 64     94%     30.11        
May 31 04:30 Calm 0.75 Fog/Mist BKN002 OVC120 66 64     94%     30.11        
May 31 04:17 Calm 0.25 Fog BKN002 OVC100 66 64     94%     30.11        
May 31 04:10 Calm 0.75 Fog/Mist BKN002 OVC100 66 64     94%     30.11        
May 31 04:06 Calm 1.5 Fog/Mist SCT002 OVC100 66 64     94%     30.11        
May 31 03:56 Calm 4 Fog/Mist FEW002 OVC100 66 66     100%     30.11 30.15   0  
May 31 03:52 Calm 2.5 Fog/Mist SCT002 OVC100 66 66     100%     30.11        
May 31 03:46 Calm 1 Fog/Mist SCT002 OVC100 66 66     100%     30.11        
May 31 03:39 Calm 1 Fog/Mist BKN002 BKN110 66 66     100%     30.11        
May 31 03:20 Calm 2.5 Fog/Mist BKN002 66 66     100%     30.11        
May 31 03:05 Calm 1.75 Fog/Mist SCT002 BKN120 66 66     100%     30.11        
May 31 02:56 Calm 8 Mostly Cloudy BKN002 BKN120 66 66     100%     30.11 30.15      
May 31 01:56 S 3 6 Fog/Mist OVC095 67 66     97%     30.12 30.16 0    
May 31 00:56 Calm 6 Fog/Mist OVC100 67 67     100%     30.13 30.17      
May 31 00:34 Calm 8 Cloudy FEW003 OVC110 66 66     100%     30.14        
May 30 23:56 Calm 9 Clear CLR 67 66     97%     30.13 30.17      
May 30 22:56 Calm 9 Cloudy OVC100 67 67     100%     30.13 30.17      
May 30 21:56 Calm 7 Partly Cloudy SCT110 67 66     97%     30.12 30.16      
May 30 20:56 Calm 10 Clear CLR 68 68     100%     30.1 30.14      
May 30 19:56 Calm 10 Mostly Clear FEW110 70 68     93%     30.1 30.14      
May 30 18:56 3 10 Partly Cloudy SCT110 72 68     87%   73 30.08 30.12     1
May 30 17:56 Calm 10 Clear CLR 72 69     91%   73 30.07 30.11      
May 30 16:56 5 10 Partly Cloudy SCT110 73 68     84%   74 30.1 30.14 0    
May 30 15:56 W 5 10 Light Rain SCT033 BKN060 69 67     93%     30.12 30.16 0 1  
May 30 15:22 Calm 10 Light Rain FEW018 SCT055 SCT075 68 66     94%     30.15   0    
May 30 15:04 NW 10 3 Thunderstorms and Rain and Fog/Mist FEW018 BKN035 OVC048 68 68     100%     30.15   0    
May 30 14:56 Calm 1.75 Thunderstorms and Heavy Rain and Fog/Mist SCT027 OVC037 68 67     96%     30.14   1    
May 30 14:49 5 2.5 Thunderstorms and Heavy Rain and Fog/Mist BKN029 BKN037 OVC049 68 66     94%     30.15   1    
May 30 14:45 S 5 1.75 Thunderstorms and Heavy Rain and Fog/Mist SCT026 OVC034 68 66     94%     30.15   0    
May 30 13:56 6 8 Thunderstorms and Rain FEW007 BKN034 OVC050 70 68     93%     30.13 30.17 0    
May 30 13:50 SE 8 10 Thunderstorms and Rain FEW007 BKN034 OVC050 70 68     94%     30.12   0    
May 30 13:25 8 1.5 Thunderstorms and Heavy Rain and Fog/Mist SCT015 BKN038 OVC045 73 70     89%   75 30.12   0    
May 30 13:14 10 7 Cloudy FEW019 BKN033 OVC055 75 70     83%   76 30.11        
May 30 12:56 E 8 10 Mostly Cloudy BKN026 BKN055 78 71     79%   79 30.11 30.14     1
May 30 11:56 S 6 10 Clear CLR 75 70     84%   76 30.13   0